Eau Claire, WI

10:16 PM CDT on September 22, 2019 (GMT -0500)
Chippewa Valley Regional

Weather History for KEAU - August, 2019

Change the Weather History Date:

Sunday, August 25, 2019

  Actual Average Record
Temperature  
Mean Temperature 64 °F 68 °F  
Max Temperature 73 °F 79 °F 99 °F (1948)
Min Temperature 55 °F 57 °F 40 °F (1958)
Degree Days  
Heating Degree Days 1 1  
Month to date heating degree days 4 20  
Since 1 June heating degree days 71 93  
Since 1 July heating degree days 7 31  
Cooling Degree Days 0 4  
Month to date cooling degree days 94 137  
Year to date cooling degree days 390 503  
Since 1 June cooling degree days 380 471  
Growing Degree Days 14 (Base 50)    
Moisture  
Dew Point 54 °F    
Average Humidity 68    
Maximum Humidity 86    
Minimum Humidity 51    
Precipitation  
Precipitation 0.00 in 0.13 in 1.61 in (1932)
Month to date precipitation 2.78 3.68  
Year to date precipitation 27.74 21.33  
Snow  
Snow 0.00 in 0.00 in 0.00 in ()
Month to date snowfall 0.0 0.0  
Since 1 June snowfall 0.0 0.0  
Since 1 July snowfall 0.0 0.0  
Snow Depth 0.00 in    
Sea Level Pressure  
Sea Level Pressure 30.06 in    
Wind  
Wind Speed 8 mph ()    
Max Wind Speed 22 mph    
Max Gust Speed 31 mph    
Visibility 10.0 miles    
Events      
T = Trace of Precipitation, MM = Missing Value Source: Averaged Metar Reports

Daily Weather History Graph

Daily Weather History Graph

Search for Another Location

Airport or City:

Astronomy

Aug. 25, 2019 Rise Set
Actual Time 6:19 AM CDT 7:55 PM CDT
Civil Twilight 5:48 AM CDT 8:26 PM CDT
Nautical Twilight 5:11 AM CDT 9:03 PM CDT
Astronomical Twilight 4:30 AM CDT 9:43 PM CDT
Moon 12:47 AM CDT (8/25) 4:25 PM CDT (8/25)
Length of Visible Light 14h 37m
Length of Day
13h 36m
Waning Crescent, 29% of the Moon is Illuminated
Aug 25
Waning Crescent
Aug 30
New
Sep 5
First Quarter
Sep 13
Full
Sep 21
Last Quarter

Hourly Weather History & Observations

Time (CDT) Temp. Dew Point Humidity Pressure Visibility Wind Dir Wind Speed Gust Speed Precip Events Conditions
12:56 AM 63.0 °F 55.0 °F 75% 30.14 in 10.0 mi SE 4.6 mph - N/A   Overcast
1:56 AM 63.0 °F 54.0 °F 72% 30.15 in 10.0 mi SSE 9.2 mph - N/A   Overcast
2:56 AM 63.0 °F 53.1 °F 70% 30.14 in 10.0 mi South 8.1 mph - N/A   Overcast
3:56 AM 62.1 °F 52.0 °F 70% 30.14 in 10.0 mi SE 5.8 mph - N/A   Overcast
4:56 AM 57.9 °F 51.1 °F 78% 30.13 in 10.0 mi SE 8.1 mph - N/A   Mostly Cloudy
5:56 AM 55.9 °F 51.1 °F 84% 30.12 in 10.0 mi SSE 6.9 mph - N/A   Clear
6:56 AM 55.0 °F 51.1 °F 86% 30.12 in 10.0 mi SE 5.8 mph - N/A   Scattered Clouds
7:56 AM 57.0 °F 52.0 °F 83% 30.11 in 10.0 mi SE 8.1 mph - N/A   Clear
8:56 AM 59.0 °F 53.1 °F 81% 30.10 in 10.0 mi SE 6.9 mph - N/A   Clear
9:56 AM 64.9 °F 55.0 °F 70% 30.10 in 10.0 mi SE 13.8 mph - N/A   Clear
10:56 AM 69.1 °F 53.1 °F 57% 30.10 in 10.0 mi SSE 13.8 mph 25.3 mph N/A   Mostly Cloudy
11:56 AM 70.0 °F 53.1 °F 55% 30.08 in 10.0 mi SSE 12.7 mph 25.3 mph N/A   Mostly Cloudy
12:56 PM 69.1 °F 52.0 °F 54% 30.06 in 10.0 mi SSE 18.4 mph 26.5 mph N/A   Mostly Cloudy
1:56 PM 70.0 °F 52.0 °F 53% 30.04 in 10.0 mi SE 15.0 mph 21.9 mph N/A   Partly Cloudy
2:56 PM 70.0 °F 53.1 °F 55% 30.03 in 10.0 mi SSE 15.0 mph 20.7 mph N/A   Mostly Cloudy
3:56 PM 72.0 °F 53.1 °F 51% 30.01 in 10.0 mi SE 15.0 mph 21.9 mph N/A   Overcast
4:56 PM 72.0 °F 54.0 °F 53% 29.99 in 10.0 mi SSE 11.5 mph - N/A   Mostly Cloudy
5:56 PM 70.0 °F 54.0 °F 57% 29.98 in 10.0 mi SE 12.7 mph - N/A   Overcast
6:56 PM 68.0 °F 55.0 °F 63% 29.98 in 10.0 mi SE 6.9 mph - N/A   Mostly Cloudy
7:56 PM 66.0 °F 55.9 °F 70% 29.96 in 10.0 mi ESE 5.8 mph - N/A   Partly Cloudy
8:56 PM 66.0 °F 55.9 °F 70% 29.96 in 10.0 mi SE 8.1 mph - N/A   Overcast
9:56 PM 64.9 °F 55.9 °F 73% 29.95 in 10.0 mi ESE 8.1 mph - N/A   Overcast
11:56 PM 64.0 °F 57.0 °F 78% 29.93 in 10.0 mi SE 8.1 mph - N/A   Overcast